Time,TemperatureF,DewpointF,PressureIn,WindDirection,WindDirectionDegrees,WindSpeedMPH,WindSpeedGustMPH,Humidity,HourlyPrecipIn,Conditions,Clouds,dailyrainin,SolarRadiationWatts/m^2,SoftwareType,DateUTC
2013-10-02 00:11:00,57.2,42.0,29.77,SSW,201,0.0,3.0,57,0.00,,,0.00,0,weatherlink.com 1.10,2013-10-02 04:11:00,
2013-10-02 00:26:00,57.2,40.0,29.78,ENE,72,0.0,2.0,54,0.00,,,0.00,0,weatherlink.com 1.10,2013-10-02 04:26:00,
2013-10-02 00:41:00,57.0,41.0,29.78,ENE,72,0.0,1.0,56,0.00,,,0.00,0,weatherlink.com 1.10,2013-10-02 04:41:00,
2013-10-02 00:56:00,56.6,42.0,29.79,ENE,72,0.0,0.0,59,0.00,,,0.00,0,weatherlink.com 1.10,2013-10-02 04:56:00,
2013-10-02 01:11:00,56.2,43.0,29.79,ENE,72,0.0,0.0,61,0.00,,,0.00,0,weatherlink.com 1.10,2013-10-02 05:11:00,
2013-10-02 01:26:00,55.9,42.0,29.80,ENE,72,0.0,1.0,59,0.00,,,0.00,0,weatherlink.com 1.10,2013-10-02 05:26:00,
2013-10-02 01:41:00,55.8,42.0,29.80,ENE,72,0.0,1.0,61,0.00,,,0.00,0,weatherlink.com 1.10,2013-10-02 05:41:00,
2013-10-02 01:56:00,55.6,41.0,29.80,ENE,72,0.0,2.0,59,0.00,,,0.00,0,weatherlink.com 1.10,2013-10-02 05:56:00,
2013-10-02 02:12:00,55.3,42.0,29.81,ENE,72,0.0,1.0,61,0.00,,,0.00,0,weatherlink.com 1.10,2013-10-02 06:12:00,
2013-10-02 02:27:00,54.9,42.0,29.82,ENE,72,0.0,1.0,63,0.00,,,0.00,0,weatherlink.com 1.10,2013-10-02 06:27:00,
2013-10-02 02:42:00,54.5,43.0,29.82,ENE,72,1.0,1.0,65,0.00,,,0.00,0,weatherlink.com 1.10,2013-10-02 06:42:00,
2013-10-02 03:12:00,54.1,42.0,29.84,ENE,72,0.0,1.0,63,0.00,,,0.00,0,weatherlink.com 1.10,2013-10-02 07:12:00,
2013-10-02 03:27:00,54.2,42.0,29.84,ENE,72,0.0,1.0,63,0.00,,,0.00,0,weatherlink.com 1.10,2013-10-02 07:27:00,
2013-10-02 03:42:00,54.3,41.0,29.83,East,90,0.0,0.0,61,0.00,,,0.00,0,weatherlink.com 1.10,2013-10-02 07:42:00,
2013-10-02 03:57:00,54.4,41.0,29.84,East,98,0.0,1.0,60,0.00,,,0.00,0,weatherlink.com 1.10,2013-10-02 07:57:00,
2013-10-02 04:12:00,54.4,41.0,29.84,ESE,109,0.0,1.0,61,0.00,,,0.00,0,weatherlink.com 1.10,2013-10-02 08:12:00,
2013-10-02 04:27:00,54.2,41.0,29.85,ESE,109,0.0,1.0,61,0.00,,,0.00,0,weatherlink.com 1.10,2013-10-02 08:27:00,
2013-10-02 04:42:00,53.9,41.0,29.85,ESE,109,0.0,1.0,61,0.00,,,0.00,0,weatherlink.com 1.10,2013-10-02 08:42:00,
2013-10-02 04:57:00,53.7,41.0,29.86,ESE,108,0.0,1.0,62,0.00,,,0.00,0,weatherlink.com 1.10,2013-10-02 08:57:00,
2013-10-02 05:12:00,53.2,40.0,29.86,ESE,109,1.0,2.0,62,0.00,,,0.00,0,weatherlink.com 1.10,2013-10-02 09:12:00,
2013-10-02 05:27:00,52.6,41.0,29.86,ESE,109,1.0,1.0,65,0.00,,,0.00,0,weatherlink.com 1.10,2013-10-02 09:27:00,
2013-10-02 05:42:00,51.7,41.0,29.87,ESE,109,0.0,1.0,68,0.00,,,0.00,0,weatherlink.com 1.10,2013-10-02 09:42:00,
2013-10-02 05:57:00,51.2,41.0,29.87,ESE,109,0.0,2.0,69,0.00,,,0.00,0,weatherlink.com 1.10,2013-10-02 09:57:00,
2013-10-02 06:12:00,51.1,40.0,29.88,ESE,109,0.0,1.0,67,0.00,,,0.00,0,weatherlink.com 1.10,2013-10-02 10:12:00,
2013-10-02 06:27:00,50.6,41.0,29.88,ESE,109,1.0,2.0,69,0.00,,,0.00,0,weatherlink.com 1.10,2013-10-02 10:27:00,
2013-10-02 06:42:00,49.6,39.0,29.89,South,187,2.0,4.0,68,0.00,,,0.00,0,weatherlink.com 1.10,2013-10-02 10:42:00,
2013-10-02 06:57:00,49.7,39.0,29.90,SSE,161,3.0,4.0,68,0.00,,,0.00,0,weatherlink.com 1.10,2013-10-02 10:57:00,
2013-10-02 07:12:00,49.6,39.0,29.91,South,180,3.0,4.0,67,0.00,,,0.00,0,weatherlink.com 1.10,2013-10-02 11:12:00,
2013-10-02 07:27:00,49.3,39.0,29.91,South,188,1.0,5.0,67,0.00,,,0.00,0,weatherlink.com 1.10,2013-10-02 11:27:00,
2013-10-02 07:42:00,49.0,39.0,29.91,South,189,0.0,3.0,68,0.00,,,0.00,0,weatherlink.com 1.10,2013-10-02 11:42:00,
2013-10-02 07:57:00,48.3,39.0,29.92,South,189,0.0,2.0,69,0.00,,,0.00,5,weatherlink.com 1.10,2013-10-02 11:57:00,
2013-10-02 08:12:00,48.0,39.0,29.92,South,189,0.0,2.0,71,0.00,,,0.00,14,weatherlink.com 1.10,2013-10-02 12:12:00,
2013-10-02 08:27:00,47.9,39.0,29.93,SSE,167,0.0,3.0,72,0.00,,,0.00,23,weatherlink.com 1.10,2013-10-02 12:27:00,
2013-10-02 08:42:00,48.2,40.0,29.93,SSE,167,0.0,1.0,73,0.00,,,0.00,30,weatherlink.com 1.10,2013-10-02 12:42:00,
2013-10-02 08:57:00,48.7,41.0,29.93,SSE,167,0.0,2.0,74,0.00,,,0.00,39,weatherlink.com 1.10,2013-10-02 12:57:00,
2013-10-02 09:12:00,50.1,42.0,29.94,SSE,167,0.0,3.0,74,0.00,,,0.00,44,weatherlink.com 1.10,2013-10-02 13:12:00,
2013-10-02 09:28:00,52.9,43.0,29.94,SSE,163,0.0,4.0,69,0.00,,,0.00,49,weatherlink.com 1.10,2013-10-02 13:28:00,
2013-10-02 09:43:00,54.4,43.0,29.95,SE,145,3.0,5.0,65,0.00,,,0.00,51,weatherlink.com 1.10,2013-10-02 13:43:00,
2013-10-02 09:58:00,55.7,44.0,29.95,SSE,157,0.0,3.0,65,0.00,,,0.00,54,weatherlink.com 1.10,2013-10-02 13:58:00,
2013-10-02 10:13:00,57.9,45.0,29.96,SSE,167,1.0,3.0,63,0.00,,,0.00,56,weatherlink.com 1.10,2013-10-02 14:13:00,
2013-10-02 10:28:00,59.6,45.0,29.96,North,11,0.0,3.0,60,0.00,,,0.00,58,weatherlink.com 1.10,2013-10-02 14:28:00,
2013-10-02 10:43:00,61.3,45.0,29.96,SSE,155,1.0,4.0,55,0.00,,,0.00,62,weatherlink.com 1.10,2013-10-02 14:43:00,
2013-10-02 10:58:00,62.8,48.0,29.96,SSE,155,0.0,4.0,58,0.00,,,0.00,62,weatherlink.com 1.10,2013-10-02 14:58:00,
2013-10-02 11:13:00,64.3,46.0,29.96,SSE,155,3.0,3.0,52,0.00,,,0.00,63,weatherlink.com 1.10,2013-10-02 15:13:00,
2013-10-02 11:28:00,66.0,46.0,29.96,SSE,155,0.0,3.0,48,0.00,,,0.00,221,weatherlink.com 1.10,2013-10-02 15:28:00,
2013-10-02 11:43:00,66.9,44.0,29.97,SSE,155,1.0,3.0,43,0.00,,,0.00,325,weatherlink.com 1.10,2013-10-02 15:43:00,
2013-10-02 11:58:00,68.0,44.0,29.97,SSE,161,1.0,3.0,42,0.00,,,0.00,596,weatherlink.com 1.10,2013-10-02 15:58:00,
2013-10-02 12:13:00,69.2,45.0,29.97,South,178,2.0,7.0,42,0.00,,,0.00,617,weatherlink.com 1.10,2013-10-02 16:13:00,
2013-10-02 12:28:00,70.3,44.0,29.97,ESE,112,1.0,3.0,39,0.00,,,0.00,633,weatherlink.com 1.10,2013-10-02 16:28:00,
2013-10-02 12:43:00,71.0,43.0,29.97,SSE,163,1.0,4.0,37,0.00,,,0.00,649,weatherlink.com 1.10,2013-10-02 16:43:00,
2013-10-02 12:58:00,71.6,42.0,29.97,SSE,163,0.0,2.0,34,0.00,,,0.00,661,weatherlink.com 1.10,2013-10-02 16:58:00,
2013-10-02 13:13:00,71.9,41.0,29.97,ESE,121,1.0,3.0,33,0.00,,,0.00,670,weatherlink.com 1.10,2013-10-02 17:13:00,
2013-10-02 13:28:00,71.7,43.0,29.97,ESE,119,1.0,3.0,35,0.00,,,0.00,680,weatherlink.com 1.10,2013-10-02 17:28:00,
2013-10-02 13:43:00,72.2,40.0,29.97,ESE,121,1.0,3.0,31,0.00,,,0.00,670,weatherlink.com 1.10,2013-10-02 17:43:00,
2013-10-02 13:58:00,72.2,39.0,29.98,ESE,121,1.0,3.0,30,0.00,,,0.00,664,weatherlink.com 1.10,2013-10-02 17:58:00,
2013-10-02 14:13:00,73.0,39.0,29.97,SSE,159,0.0,3.0,29,0.00,,,0.00,657,weatherlink.com 1.10,2013-10-02 18:13:00,
2013-10-02 14:29:00,73.3,39.0,29.97,South,171,0.0,3.0,29,0.00,,,0.00,645,weatherlink.com 1.10,2013-10-02 18:29:00,
2013-10-02 14:44:00,73.4,41.0,29.97,SSE,161,0.0,4.0,31,0.00,,,0.00,629,weatherlink.com 1.10,2013-10-02 18:44:00,
2013-10-02 14:59:00,73.4,36.0,29.97,NE,53,1.0,7.0,26,0.00,,,0.00,610,weatherlink.com 1.10,2013-10-02 18:59:00,
2013-10-02 15:14:00,72.3,42.0,29.96,NE,40,2.0,5.0,33,0.00,,,0.00,585,weatherlink.com 1.10,2013-10-02 19:14:00,
2013-10-02 15:29:00,71.5,42.0,29.97,ENE,65,1.0,5.0,34,0.00,,,0.00,559,weatherlink.com 1.10,2013-10-02 19:29:00,
2013-10-02 15:44:00,71.1,44.0,29.96,ENE,73,4.0,7.0,38,0.00,,,0.00,531,weatherlink.com 1.10,2013-10-02 19:44:00,
2013-10-02 15:59:00,71.8,44.0,29.96,NNE,31,2.0,3.0,37,0.00,,,0.00,499,weatherlink.com 1.10,2013-10-02 19:59:00,
2013-10-02 16:14:00,70.9,43.0,29.96,NE,50,1.0,6.0,36,0.00,,,0.00,466,weatherlink.com 1.10,2013-10-02 20:14:00,
2013-10-02 16:29:00,71.5,41.0,29.95,NE,38,2.0,4.0,33,0.00,,,0.00,429,weatherlink.com 1.10,2013-10-02 20:29:00,
2013-10-02 16:44:00,70.2,42.0,29.95,NE,34,0.0,3.0,36,0.00,,,0.00,47,weatherlink.com 1.10,2013-10-02 20:44:00,
2013-10-02 16:59:00,69.3,39.0,29.95,NNE,15,0.0,3.0,33,0.00,,,0.00,42,weatherlink.com 1.10,2013-10-02 20:59:00,
2013-10-02 17:14:00,68.5,41.0,29.95,NE,47,0.0,2.0,37,0.00,,,0.00,37,weatherlink.com 1.10,2013-10-02 21:14:00,
2013-10-02 17:29:00,67.5,41.0,29.95,NE,47,0.0,1.0,38,0.00,,,0.00,30,weatherlink.com 1.10,2013-10-02 21:29:00,
2013-10-02 17:44:00,66.7,41.0,29.95,NE,47,0.0,2.0,39,0.00,,,0.00,25,weatherlink.com 1.10,2013-10-02 21:44:00,
2013-10-02 17:59:00,66.3,45.0,29.95,NE,47,0.0,0.0,47,0.00,,,0.00,21,weatherlink.com 1.10,2013-10-02 21:59:00,
2013-10-02 18:14:00,65.2,46.0,29.96,NE,47,0.0,1.0,50,0.00,,,0.00,19,weatherlink.com 1.10,2013-10-02 22:14:00,
2013-10-02 18:29:00,64.0,49.0,29.95,NE,47,0.0,0.0,59,0.00,,,0.00,16,weatherlink.com 1.10,2013-10-02 22:29:00,
2013-10-02 18:44:00,62.7,49.0,29.96,NE,47,0.0,0.0,62,0.00,,,0.00,12,weatherlink.com 1.10,2013-10-02 22:44:00,
2013-10-02 18:59:00,61.4,50.0,29.95,NE,36,0.0,1.0,66,0.00,,,0.00,11,weatherlink.com 1.10,2013-10-02 22:59:00,
2013-10-02 19:14:00,60.2,50.0,29.95,NE,36,0.0,0.0,70,0.00,,,0.00,5,weatherlink.com 1.10,2013-10-02 23:14:00,
2013-10-02 19:29:00,58.5,50.0,29.96,NE,36,0.0,0.0,73,0.00,,,0.00,0,weatherlink.com 1.10,2013-10-02 23:29:00,
2013-10-02 19:44:00,56.3,49.0,29.95,NE,36,0.0,1.0,77,0.00,,,0.00,0,weatherlink.com 1.10,2013-10-02 23:44:00,
2013-10-02 19:59:00,54.9,49.0,29.95,NE,36,0.0,0.0,79,0.00,,,0.00,0,weatherlink.com 1.10,2013-10-02 23:59:00,
2013-10-02 20:14:00,53.9,48.0,29.96,NE,36,0.0,0.0,81,0.00,,,0.00,0,weatherlink.com 1.10,2013-10-03 00:14:00,
2013-10-02 20:29:00,53.4,48.0,29.96,NE,36,0.0,0.0,81,0.00,,,0.00,0,weatherlink.com 1.10,2013-10-03 00:29:00,
2013-10-02 20:44:00,52.3,47.0,29.96,NE,36,0.0,0.0,82,0.00,,,0.00,0,weatherlink.com 1.10,2013-10-03 00:44:00,
2013-10-02 20:59:00,51.5,47.0,29.96,NE,36,0.0,0.0,83,0.00,,,0.00,0,weatherlink.com 1.10,2013-10-03 00:59:00,
2013-10-02 21:14:00,51.0,46.0,29.97,NE,36,0.0,1.0,83,0.00,,,0.00,0,weatherlink.com 1.10,2013-10-03 01:14:00,
2013-10-02 21:29:00,50.4,45.0,29.96,NE,36,0.0,0.0,83,0.00,,,0.00,0,weatherlink.com 1.10,2013-10-03 01:29:00,
2013-10-02 21:44:00,49.7,45.0,29.97,NE,36,0.0,0.0,84,0.00,,,0.00,0,weatherlink.com 1.10,2013-10-03 01:44:00,
2013-10-02 21:59:00,49.4,45.0,29.97,NE,36,0.0,0.0,85,0.00,,,0.00,0,weatherlink.com 1.10,2013-10-03 01:59:00,
2013-10-02 22:14:00,49.7,45.0,29.97,NE,36,1.0,1.0,84,0.00,,,0.00,0,weatherlink.com 1.10,2013-10-03 02:14:00,
2013-10-02 22:29:00,49.3,45.0,29.97,NE,36,0.0,0.0,84,0.00,,,0.00,0,weatherlink.com 1.10,2013-10-03 02:29:00,
2013-10-02 22:44:00,48.9,45.0,29.97,NE,36,0.0,0.0,85,0.00,,,0.00,0,weatherlink.com 1.10,2013-10-03 02:44:00,
2013-10-02 22:59:00,48.7,44.0,29.97,NE,36,0.0,0.0,85,0.00,,,0.00,0,weatherlink.com 1.10,2013-10-03 02:59:00,
2013-10-02 23:14:00,48.8,45.0,29.97,NE,36,0.0,0.0,86,0.00,,,0.00,0,weatherlink.com 1.10,2013-10-03 03:14:00,
2013-10-02 23:29:00,49.2,45.0,29.97,NE,36,0.0,1.0,86,0.00,,,0.00,0,weatherlink.com 1.10,2013-10-03 03:29:00,
2013-10-02 23:44:00,50.1,46.0,29.98,NE,36,0.0,1.0,86,0.00,,,0.00,0,weatherlink.com 1.10,2013-10-03 03:44:00,
2013-10-02 23:59:00,50.9,46.0,29.98,NE,36,0.0,0.0,84,0.00,,,0.00,0,weatherlink.com 1.10,2013-10-03 03:59:00,